This is the latest recevied weather packets stored in our database for station/object KQ4KX. If no packets are shown the sender has not sent any weather packets the latest 10 day(s).
| Time | Temp. | Humidity | Pressure | Rain* | Wind** | Luminosity | Snow |
|---|---|---|---|---|---|---|---|
| 1777332264 | 25° C | 75% | 1017 hPa | 0 mm | - | - | - |
| 1777331965 | 25° C | 77% | 1016.9 hPa | 0 mm | - | - | - |
| 1777331634 | 25° C | 79% | 1016.8 hPa | 0 mm | - | - | - |
| 1777331304 | 25° C | 78% | 1016.8 hPa | 0 mm | - | - | - |
| 1777330974 | 25.56° C | 76% | 1016.7 hPa | 0 mm | - | - | - |
| 1777330344 | 25.56° C | 75% | 1016.7 hPa | 0 mm | - | - | - |
| 1777330044 | 25.56° C | 75% | 1016.6 hPa | 0 mm | - | - | - |
| 1777329744 | 25.56° C | 75% | 1016.7 hPa | 0 mm | - | - | - |
| 1777329444 | 26.11° C | 74% | 1016.7 hPa | 0 mm | - | - | - |
| 1777328183 | 26.67° C | 74% | 1016.5 hPa | 0 mm | - | - | - |
| 1777327584 | 26.67° C | 71% | 1016.3 hPa | 0 mm | - | - | - |
| 1777327285 | 26.67° C | 70% | 1016.4 hPa | 0 mm | - | - | - |
| 1777326653 | 27.22° C | 71% | 1016.3 hPa | 0 mm | - | - | - |
| 1777326354 | 27.22° C | 72% | 1016.2 hPa | 0 mm | - | - | - |
| 1777326023 | 27.22° C | 71% | 1016.3 hPa | 0 mm | - | - | - |
| 1777325724 | 27.22° C | 69% | 1016.2 hPa | 0 mm | - | - | - |
| 1777325424 | 27.22° C | 69% | 1016.2 hPa | 0 mm | - | - | - |
| 1777324794 | 27.78° C | 70% | 1016.2 hPa | 0 mm | - | - | - |
| 1777324493 | 27.78° C | 69% | 1016.1 hPa | 0 mm | - | - | - |
| 1777324163 | 27.78° C | 70% | 1016.1 hPa | 0 mm | - | - | - |
| 1777323533 | 27.78° C | 70% | 1016.1 hPa | 0 mm | - | - | - |
| 1777323234 | 27.78° C | 69% | 1016.1 hPa | 0 mm | - | - | - |
| 1777322933 | 27.78° C | 72% | 1015.9 hPa | 0 mm | - | - | - |
| 1777322634 | 27.78° C | 71% | 1015.8 hPa | 0 mm | - | - | - |
| 1777321704 | 27.78° C | 71% | 1015.7 hPa | 0 mm | - | - | - |
* Rain latest hour (hover to see other rain measurements)
** Current wind speed in m/s (hover to see current wind gust speed)